{"data":{"norad_id":61693,"intl_designator":"2024-195G","name":"STARLINK-11366 [DTC]","alt_names":[],"object_type":"PAYLOAD","status":"ACTIVE","operator":null,"country":"US","launch_date":"2024-10-30","launch_site_code":"AFWTR","launch_vehicle":null,"mission":null,"orbit_class":"UNKNOWN","rcs_meters":null,"size_class":null,"mass_kg":null,"dimensions":null,"purposes":["comms"],"wikipedia_slug":null,"has_3d_model":false,"image_url":null,"decayed_at":null,"tle_current":{"epoch":"2026-05-25T00:43:45.493824Z","epoch_age_seconds":79318,"freshness":"FRESH","line1":"1 61693U 24195G   26145.03038766  .00000061  00000+0  53662-5 0  9990","line2":"2 61693  53.1592   9.9341 0001104  66.0397 294.0737 15.69705430 91029","mean_motion":15.6970543,"eccentricity":0.0001104,"inclination_deg":53.1592,"raan_deg":9.9341,"arg_perigee_deg":66.0397,"mean_anomaly_deg":294.0737,"bstar":5.3662e-6,"rev_number":9102,"period_min":91.736957296504,"perigee_km":358.99596644039,"apogee_km":360.48368964402,"semimajor_km":6737.8768280422,"source":"CELESTRAK","updated_at":"2026-05-25T13:38:19.440538Z"}}}